Location: Fort Worth, Tx
(32.7431°N, 97.3695°W)
Time: 06:26:55
(UTC-05:00)

N. Korean satellite - Visible Passes

Search period start: 08 December 2019 00:00
Search period end: 18 December 2019 00:00
Orbit: 456 x 506 km, 97.2° (Epoch: 07 December)

Date Brightness Start Highest point End Pass type
(mag) Time Alt. Az. Time Alt. Az. Time Alt. Az.
08 Dec 6.6 07:13:54 10° NNE 07:17:25 80° E 07:20:52 10° S visible
08 Dec 9.2 19:18:18 10° SSW 19:21:25 25° W 19:24:32 10° NW visible
09 Dec 8.5 06:48:48 10° NNE 06:51:57 31° E 06:55:03 10° SSE visible
09 Dec 7.4 18:52:17 10° S 18:55:56 58° W 18:59:36 10° NNW visible
10 Dec 9.8 06:24:31 10° ENE 06:26:24 14° E 06:28:16 10° SE visible
11 Dec 6.5 07:31:02 10° N 07:34:26 53° WNW 07:37:47 10° SSW visible
11 Dec 9.9 19:36:23 10° SW 19:38:34 15° W 19:40:44 10° WNW visible
12 Dec 7.1 07:05:35 10° NNE 07:09:02 58° E 07:12:25 10° S visible
12 Dec 8.7 19:09:41 10° SSW 19:13:02 32° W 19:16:23 10° NNW visible
13 Dec 9.0 06:40:40 10° NE 06:43:32 24° E 06:46:21 10° SSE visible
14 Dec 10.1 06:17:16 10° E 06:17:57 10° E 06:18:38 10° ESE visible
14 Dec 7.3 07:48:21 10° NNW 07:51:24 29° WNW 07:54:24 10° SW visible
15 Dec 6.3 07:22:36 10° N 07:26:03 73° WNW 07:29:27 10° SSW visible
15 Dec 9.7 19:27:29 10° SW 19:30:09 19° W 19:32:49 10° NW visible
16 Dec 7.7 06:57:18 10° NNE 07:00:37 42° E 07:03:52 10° S visible
16 Dec 8.1 19:01:09 10° S 19:04:38 42° W 19:08:09 10° NNW visible
17 Dec 9.4 06:32:37 10° NE 06:35:05 18° E 06:37:31 10° SE visible
